Weather History for Midland Airpark, TX

Change the Weather History Date:

Wednesday, May 13, 2009

  Actual Average (KMAF) Record (KMAF)
Temperature  
Mean Temperature 86 °F 73 °F  
Max Temperature 101 °F 87 °F 102 °F (1960)
Min Temperature 71 °F 59 °F 39 °F (1971)
Cooling Degree Days 21 8  
Month to date cooling degree days 89  
Year to date cooling degree days 197  
Growing Degree Days 36 (Base 50)    
Moisture  
Dew Point 43 °F    
Average Humidity 34    
Maximum Humidity 76    
Minimum Humidity 5    
Precipitation  
Precipitation 0.00 in 0.05 in 1.26 in (1965)
Month to date precipitation 0.51  
Year to date precipitation 3.03  
Sea Level Pressure  
Sea Level Pressure 29.79 in    
Wind  
Wind Speed 15 mph (SSW)    
Max Wind Speed 21 mph    
Max Gust Speed 29 mph    
Visibility 10 miles    
Events      
T = Trace of Precipitation, MM = Missing Value Source: NWS Daily Summary

Daily Weather History Graph

Daily Weather History Graph

Search for Another Location

Airport:

Trip Planner

Search our weather history database for the weather conditions in past years. The results will help you decide how hot, cold, wet, or windy it might be!

Date:

Astronomy

May. 13, 2009 Rise Set
Actual Time 6:52 AM CDT 8:37 PM CDT
Civil Twilight 6:25 AM CDT 9:04 PM CDT
Nautical Twilight 5:53 AM CDT 9:36 PM CDT
Astronomical Twilight 5:19 AM CDT 10:11 PM CDT
Moon 12:08 AM CDT (5/13) 10:12 AM CDT (5/13)
Length of Visible Light 14h 39m
Length of Day
13h 45m
Waning Gibbous, 82% of the Moon is Illuminated
May 13
Waning Gibbous
May 17
Last Quarter
May 24
New
May 30
First Quarter
Jun 7
Full

Hourly Weather History & Observations

Time (CDT) Temp. Heat Index Dew Point Humidity Pressure Visibility Wind Dir Wind Speed Gust Speed Precip Events Conditions
12:05 AM 77.2 °F - 55.9 °F 48% 29.78 in 10.0 mi South 12.7 mph 16.1 mph N/A   Clear
12:25 AM 76.5 °F - 55.2 °F 48% 29.79 in 10.0 mi South 18.4 mph 27.6 mph N/A   Clear
12:45 AM 76.3 °F - 54.1 °F 46% 29.79 in 10.0 mi South 19.6 mph - N/A   Clear
1:05 AM 75.7 °F - 53.6 °F 46% 29.79 in 10.0 mi South 16.1 mph - N/A   Clear
1:25 AM 75.4 °F - 53.8 °F 47% 29.79 in 10.0 mi SSE 16.1 mph - N/A   Clear
2:05 AM 74.5 °F - 56.3 °F 53% 29.80 in 10.0 mi SSE 17.3 mph 23.0 mph N/A   Clear
2:25 AM 74.3 °F - 57.2 °F 55% 29.79 in 10.0 mi SSE 20.7 mph 26.5 mph N/A   Clear
2:45 AM 74.3 °F - 57.6 °F 56% 29.79 in 10.0 mi SSE 18.4 mph 24.2 mph N/A   Clear
3:05 AM 73.8 °F - 58.1 °F 58% 29.79 in 10.0 mi SSE 18.4 mph 25.3 mph N/A   Clear
3:25 AM 73.6 °F - 59.0 °F 60% 29.79 in 10.0 mi SSE 17.3 mph 24.2 mph N/A   Clear
3:45 AM 73.4 °F - 59.4 °F 61% 29.80 in 10.0 mi SSE 17.3 mph 24.2 mph N/A   Clear
4:05 AM 73.0 °F - 59.5 °F 62% 29.80 in 10.0 mi South 18.4 mph 24.2 mph N/A   Clear
4:25 AM 73.0 °F - 59.9 °F 63% 29.80 in 10.0 mi SSE 19.6 mph 24.2 mph N/A   Clear
4:45 AM 72.7 °F - 60.8 °F 66% 29.79 in 10.0 mi SSE 20.7 mph 28.8 mph N/A   Clear
5:05 AM 72.3 °F - 61.3 °F 68% 29.79 in 10.0 mi SSE 16.1 mph 24.2 mph N/A   Clear
5:25 AM 71.8 °F - 61.7 °F 70% 29.79 in 10.0 mi SSE 18.4 mph - N/A   Clear
5:45 AM 71.4 °F - 62.1 °F 72% 29.80 in 10.0 mi South 15.0 mph 20.7 mph N/A   Clear
6:05 AM 71.2 °F - 62.6 °F 74% 29.80 in 10.0 mi South 13.8 mph - N/A   Clear
6:25 AM 71.6 °F - 62.8 °F 74% 29.80 in 10.0 mi South 15.0 mph - N/A   Clear
7:05 AM 71.2 °F - 63.5 °F 76% 29.80 in 10.0 mi South 15.0 mph - N/A   Clear
7:25 AM 71.2 °F - 63.5 °F 76% 29.81 in 10.0 mi South 16.1 mph 21.9 mph N/A   Clear
7:45 AM 71.6 °F - 63.5 °F 76% 29.81 in 10.0 mi South 13.8 mph - N/A   Clear
8:25 AM 73.6 °F - 63.7 °F 71% 29.82 in 10.0 mi South 12.7 mph 20.7 mph N/A   Clear
8:45 AM 74.5 °F - 63.9 °F 69% 29.82 in 10.0 mi South 16.1 mph 25.3 mph N/A   Clear
9:05 AM 76.3 °F - 63.7 °F 65% 29.83 in 10.0 mi South 17.3 mph 21.9 mph N/A   Clear
9:25 AM 77.9 °F - 63.1 °F 60% 29.83 in 10.0 mi South 19.6 mph 23.0 mph N/A   Clear
9:45 AM 79.7 °F - 63.1 °F 57% 29.83 in 10.0 mi South 17.3 mph 21.9 mph N/A   Clear
10:05 AM 81.7 °F 82.6 °F 61.9 °F 51% 29.83 in 10.0 mi South 17.3 mph 25.3 mph N/A   Clear
10:25 AM 82.9 °F 83.5 °F 61.2 °F 48% 29.83 in 10.0 mi SSW 16.1 mph 23.0 mph N/A   Clear
10:45 AM 84.2 °F 83.8 °F 59.0 °F 42% 29.82 in 10.0 mi SSW 17.3 mph 23.0 mph N/A   Clear
11:05 AM 86.2 °F 84.5 °F 54.7 °F 34% 29.82 in 10.0 mi SW 17.3 mph 23.0 mph N/A   Clear
11:25 AM 87.6 °F 85.7 °F 54.7 °F 32% 29.83 in 10.0 mi SW 18.4 mph 21.9 mph N/A   Clear
11:45 AM 89.2 °F - 52.5 °F 28% 29.82 in 10.0 mi SW 15.0 mph 21.9 mph N/A   Clear
12:05 PM 91.0 °F - 48.6 °F 23% 29.83 in 10.0 mi WSW 11.5 mph - N/A   Clear
12:25 PM 93.2 °F - 44.4 °F 19% 29.82 in 10.0 mi SW 11.5 mph 19.6 mph N/A   Clear
12:45 PM 94.1 °F - 39.6 °F 15% 29.82 in 10.0 mi SW 10.4 mph 18.4 mph N/A   Clear
1:05 PM 95.5 °F - 34.9 °F 12% 29.81 in 10.0 mi WSW 12.7 mph 23.0 mph N/A   Clear
1:25 PM 97.0 °F - 33.3 °F 11% 29.80 in 10.0 mi SW 12.7 mph - N/A   Clear
1:45 PM 98.4 °F - 32.7 °F 10% 29.79 in 10.0 mi WSW 9.2 mph - N/A   Clear
2:05 PM 98.4 °F - 27.1 °F 8% 29.79 in 10.0 mi WSW 15.0 mph 18.4 mph N/A   Clear
2:25 PM 99.3 °F - 25.2 °F 7% 29.78 in 10.0 mi WSW 11.5 mph 19.6 mph N/A   Clear
2:45 PM 99.9 °F - 22.5 °F 6% 29.78 in 10.0 mi WSW 11.5 mph - N/A   Clear
3:05 PM 100.6 °F - 21.7 °F 6% 29.77 in 10.0 mi SW 13.8 mph 21.9 mph N/A   Clear
3:25 PM 101.3 °F - 21.2 °F 6% 29.77 in 10.0 mi SW 12.7 mph 18.4 mph N/A   Clear
3:45 PM 101.1 °F - 21.0 °F 6% 29.76 in 10.0 mi WSW 15.0 mph 24.2 mph N/A   Clear
4:05 PM 101.8 °F - 22.6 °F 6% 29.75 in 10.0 mi SW 13.8 mph 20.7 mph N/A   Clear
4:25 PM 101.1 °F - 20.8 °F 6% 29.75 in 10.0 mi WSW 18.4 mph 26.5 mph N/A   Clear
4:45 PM 100.9 °F - 19.8 °F 5% 29.75 in 10.0 mi WSW 11.5 mph 26.5 mph N/A   Clear
5:05 PM 101.3 °F - 19.9 °F 5% 29.74 in 10.0 mi WSW 15.0 mph 24.2 mph N/A   Clear
5:25 PM 101.1 °F - 20.5 °F 6% 29.74 in 10.0 mi SW 11.5 mph 23.0 mph N/A   Clear
5:45 PM 101.5 °F - 19.8 °F 5% 29.74 in 10.0 mi WSW 10.4 mph 19.6 mph N/A   Clear
6:05 PM 101.3 °F - 19.6 °F 5% 29.74 in 10.0 mi WNW 10.4 mph 17.3 mph N/A   Clear
6:25 PM 100.6 °F - 18.1 °F 5% 29.74 in 10.0 mi WSW 9.2 mph 17.3 mph N/A   Clear
6:45 PM 100.4 °F - 16.5 °F 5% 29.74 in 10.0 mi WSW 13.8 mph 18.4 mph N/A   Clear
7:05 PM 100.0 °F - 16.3 °F 5% 29.75 in 10.0 mi West 17.3 mph 21.9 mph N/A   Clear
7:25 PM 99.3 °F - 16.2 °F 5% 29.75 in 10.0 mi West 10.4 mph - N/A   Clear
7:45 PM 98.6 °F - 16.0 °F 5% 29.75 in 10.0 mi West 9.2 mph - N/A   Clear
8:05 PM 96.8 °F - 18.3 °F 6% 29.75 in 10.0 mi WSW 9.2 mph - N/A   Clear
8:25 PM 94.5 °F - 19.2 °F 7% 29.76 in 10.0 mi SW 5.8 mph - N/A   Clear
8:45 PM 91.4 °F - 22.6 °F 8% 29.77 in 10.0 mi SW 3.5 mph - N/A   Clear
9:05 PM 90.7 °F - 22.8 °F 9% 29.77 in 10.0 mi SSW 5.8 mph - N/A   Clear
9:25 PM 87.6 °F - 23.4 °F 10% 29.78 in 10.0 mi SSE 9.2 mph - N/A   Clear
9:45 PM 88.2 °F - 51.8 °F 29% 29.80 in 10.0 mi South 16.1 mph - N/A   Clear
10:05 PM 87.3 °F 85.3 °F 54.0 °F 32% 29.81 in 10.0 mi South 9.2 mph - N/A   Clear
10:25 PM 86.2 °F 84.9 °F 56.1 °F 36% 29.82 in 10.0 mi South 11.5 mph - N/A   Clear
10:45 PM 85.6 °F 84.5 °F 56.5 °F 37% 29.83 in 10.0 mi South 11.5 mph - N/A   Clear
11:05 PM 85.1 °F 84.1 °F 56.7 °F 38% 29.84 in 10.0 mi South 12.7 mph 18.4 mph N/A   Clear
11:25 PM 84.2 °F 83.3 °F 56.7 °F 39% 29.85 in 10.0 mi South 10.4 mph - N/A   Clear
11:45 PM 83.3 °F 82.6 °F 56.7 °F 40% 29.85 in 10.0 mi South 10.4 mph - N/A   Clear